Stanton, MN

11:59 AM CDT on March 29, 2017 (GMT -0500)
Stanton

Weather History for KSYN - May, 2013

Change the Weather History Date:

Monday, May 27, 2013

  Actual Average (KLVN) Record (KLVN)
Temperature  
Mean Temperature 56 °F -  
Max Temperature 57 °F 74 °F 95 °F (1969)
Min Temperature 54 °F 51 °F 38 °F (1971)
Degree Days  
Heating Degree Days 10    
Growing Degree Days 6 (Base 50)    
Moisture  
Dew Point 51 °F    
Average Humidity 84    
Maximum Humidity 92    
Minimum Humidity 73    
Precipitation  
Precipitation 0.18 in - - ()
Sea Level Pressure  
Sea Level Pressure 29.91 in    
Wind  
Wind Speed 10 mph (East)    
Max Wind Speed 15 mph    
Max Gust Speed 22 mph    
Visibility 7 miles    
Events Rain    
Averages and records for this station are not official NWS values.
T = Trace of Precipitation, MM = Missing Value Source: NWS Daily Summary

Daily Weather History Graph

Daily Weather History Graph

Search for Another Location

Airport or City:

Trip Planner

Search our weather history database for the weather conditions in past years. The results will help you decide how hot, cold, wet, or windy it might be!

Date:

Astronomy

May. 27, 2013 Rise Set
Actual Time 5:33 AM CDT 8:45 PM CDT
Civil Twilight 4:58 AM CDT 9:21 PM CDT
Nautical Twilight 4:12 AM CDT 10:06 PM CDT
Astronomical Twilight 3:16 AM CDT 11:02 PM CDT
Moon 11:22 PM CDT (5/27) 8:13 AM CDT (5/27)
Length of Visible Light 16h 22m
Length of Day
15h 12m
Waning Gibbous, 91% of the Moon is Illuminated
May 27
Waning Gibbous
May 31
Last Quarter
Jun 8
New
Jun 16
First Quarter
Jun 23
Full

Hourly Weather History & Observations

Time (CDT) Temp. Dew Point Humidity Pressure Visibility Wind Dir Wind Speed Gust Speed Precip Events Conditions
12:13 AM 55.9 °F 47.8 °F 74% 30.03 in 10.0 mi ESE 11.5 mph 16.1 mph N/A   Mostly Cloudy
12:34 AM 56.3 °F 47.7 °F 73% 30.03 in 10.0 mi ESE 12.7 mph 18.4 mph N/A   Overcast
12:53 AM 56.3 °F 47.7 °F 73% 30.03 in 10.0 mi ESE 9.2 mph 18.4 mph N/A   Overcast
1:13 AM 56.3 °F 47.8 °F 73% 30.02 in 10.0 mi ESE 11.5 mph 18.4 mph N/A   Overcast
1:34 AM 56.3 °F 47.8 °F 73% 30.01 in 10.0 mi ESE 11.5 mph 20.7 mph N/A   Overcast
1:53 AM 56.5 °F 48.2 °F 74% 30.00 in 10.0 mi ESE 10.4 mph 19.6 mph N/A   Overcast
2:13 AM 56.3 °F 48.2 °F 74% 30.00 in 10.0 mi ESE 12.7 mph 19.6 mph N/A   Overcast
2:34 AM 56.3 °F 48.6 °F 75% 30.00 in 10.0 mi ESE 10.4 mph 18.4 mph N/A   Overcast
2:53 AM 56.3 °F 48.9 °F 76% 30.00 in 10.0 mi ESE 9.2 mph 18.4 mph N/A   Overcast
3:13 AM 55.9 °F 49.1 °F 78% 29.99 in 10.0 mi ESE 11.5 mph 17.3 mph N/A   Overcast
3:34 AM 55.9 °F 49.5 °F 79% 29.98 in 7.0 mi ESE 8.1 mph - N/A   Overcast
3:53 AM 55.6 °F 49.5 °F 80% 29.96 in 7.0 mi East 9.2 mph - N/A   Overcast
4:14 AM 55.6 °F 49.5 °F 80% 29.96 in 7.0 mi ESE 8.1 mph 16.1 mph N/A   Overcast
4:33 AM 55.8 °F 49.6 °F 80% 29.97 in 7.0 mi ESE 10.4 mph - N/A   Overcast
4:54 AM 55.6 °F 49.6 °F 80% 29.96 in 7.0 mi East 8.1 mph 16.1 mph N/A   Overcast
5:13 AM 55.6 °F 49.5 °F 80% 29.97 in 7.0 mi ESE 9.2 mph - N/A   Overcast
5:34 AM 55.6 °F 49.8 °F 81% 29.95 in 7.0 mi East 11.5 mph 17.3 mph N/A   Overcast
5:53 AM 55.6 °F 49.6 °F 80% 29.96 in 7.0 mi East 10.4 mph - N/A   Overcast
6:13 AM 55.6 °F 49.5 °F 80% 29.97 in 7.0 mi East 9.2 mph - N/A   Overcast
6:34 AM 55.8 °F 49.1 °F 78% 29.98 in 10.0 mi SE 6.9 mph - N/A   Overcast
6:53 AM 55.8 °F 49.3 °F 79% 29.98 in 7.0 mi ESE 6.9 mph - N/A   Overcast
7:13 AM 55.4 °F 49.5 °F 80% 29.98 in 7.0 mi ESE 6.9 mph - N/A   Overcast
7:34 AM 54.9 °F 49.8 °F 83% 29.96 in 2.0 mi East 9.2 mph - N/A Rain Light Rain
7:53 AM 54.0 °F 50.5 °F 88% 29.94 in 2.0 mi East 9.2 mph - N/A   Overcast
8:13 AM 54.1 °F 50.5 °F 88% 29.94 in 4.0 mi East 10.4 mph - N/A   Overcast
8:34 AM 54.5 °F 50.5 °F 86% 29.93 in 5.0 mi East 9.2 mph - N/A   Overcast
8:53 AM 54.7 °F 50.2 °F 85% 29.93 in 7.0 mi East 9.2 mph - N/A   Overcast
9:14 AM 54.9 °F 49.8 °F 83% 29.94 in 5.0 mi ESE 5.8 mph - N/A   Haze
9:34 AM 54.9 °F 49.6 °F 83% 29.95 in 5.0 mi East 6.9 mph - N/A   Haze
9:54 AM 54.9 °F 49.6 °F 83% 29.95 in 7.0 mi East 9.2 mph - N/A   Overcast
10:13 AM 54.9 °F 48.9 °F 80% 29.94 in 7.0 mi East 8.1 mph - N/A   Overcast
10:34 AM 54.5 °F 49.5 °F 83% 29.93 in 4.0 mi East 12.7 mph - N/A   Overcast
10:54 AM 54.9 °F 50.0 °F 84% 29.93 in 7.0 mi East 12.7 mph - N/A   Overcast
11:13 AM 55.4 °F 50.2 °F 83% 29.93 in 7.0 mi East 13.8 mph 21.9 mph N/A   Overcast
11:34 AM 55.4 °F 50.0 °F 82% 29.90 in 10.0 mi East 12.7 mph 18.4 mph N/A   Overcast
11:54 AM 55.9 °F 50.5 °F 82% 29.89 in 7.0 mi East 13.8 mph 18.4 mph N/A Rain Light Rain
12:13 PM 55.9 °F 50.9 °F 83% 29.88 in 7.0 mi East 13.8 mph 19.6 mph N/A Rain Light Rain
12:34 PM 55.9 °F 51.1 °F 84% 29.87 in 7.0 mi East 15.0 mph 21.9 mph N/A Rain Light Rain
12:53 PM 55.8 °F 51.1 °F 84% 29.86 in 7.0 mi East 12.7 mph 18.4 mph N/A Rain Light Rain
1:14 PM 55.6 °F 51.3 °F 85% 29.86 in 7.0 mi East 12.7 mph 16.1 mph N/A Rain Light Rain
1:33 PM 55.8 °F 51.3 °F 85% 29.86 in 7.0 mi East 10.4 mph 20.7 mph N/A Rain Light Rain
1:53 PM 55.9 °F 51.8 °F 86% 29.87 in 7.0 mi East 10.4 mph - 0.01 in Rain Light Rain
2:14 PM 55.9 °F 52.0 °F 87% 29.85 in 7.0 mi East 11.5 mph - 0.01 in Rain Light Rain
2:33 PM 56.3 °F 52.3 °F 87% 29.85 in 10.0 mi ESE 11.5 mph - 0.01 in   Overcast
2:53 PM 56.7 °F 52.7 °F 87% 29.86 in 10.0 mi East 8.1 mph 16.1 mph 0.01 in   Light Drizzle
3:14 PM 56.7 °F 52.7 °F 87% 29.86 in 7.0 mi East 9.2 mph - N/A Rain Light Rain
3:33 PM 57.0 °F 53.2 °F 87% 29.87 in 7.0 mi East 8.1 mph - 0.01 in Rain Light Rain
3:53 PM 57.2 °F 53.4 °F 87% 29.88 in 7.0 mi East 8.1 mph 11.5 mph 0.02 in Rain Light Rain
4:14 PM 57.2 °F 53.6 °F 88% 29.88 in 7.0 mi East 8.1 mph - 0.01 in Rain Light Rain
4:33 PM 57.2 °F 53.6 °F 88% 29.88 in 5.0 mi East 8.1 mph - 0.03 in Rain Rain
4:53 PM 57.2 °F 53.6 °F 88% 29.87 in 4.0 mi East 9.2 mph - 0.05 in Rain Light Rain
5:14 PM 57.4 °F 54.5 °F 90% 29.86 in 4.0 mi East 8.1 mph - 0.01 in Rain Light Rain
5:33 PM 57.4 °F 54.3 °F 90% 29.86 in 5.0 mi East 9.2 mph - 0.01 in Rain Light Rain
5:53 PM 56.8 °F 53.8 °F 89% 29.85 in 4.0 mi East 11.5 mph - 0.05 in Rain Light Rain
6:14 PM 56.8 °F 53.6 °F 89% 29.83 in 7.0 mi East 12.7 mph - N/A Rain Light Rain
6:33 PM 56.8 °F 53.4 °F 88% 29.83 in 7.0 mi East 11.5 mph 18.4 mph N/A   Light Drizzle
6:53 PM 56.7 °F 53.6 °F 89% 29.82 in 5.0 mi East 13.8 mph 18.4 mph N/A   Overcast
7:14 PM 56.8 °F 53.6 °F 89% 29.82 in 10.0 mi East 10.4 mph - N/A   Overcast
7:33 PM 56.8 °F 53.2 °F 88% 29.83 in 10.0 mi East 10.4 mph - N/A   Overcast
7:53 PM 56.8 °F 53.2 °F 88% 29.83 in 10.0 mi ESE 6.9 mph - N/A   Overcast
8:14 PM 56.8 °F 53.2 °F 88% 29.84 in 10.0 mi ESE 9.2 mph - N/A Rain Light Rain
8:33 PM 56.7 °F 53.1 °F 88% 29.84 in 5.0 mi East 6.9 mph - N/A Rain Rain
8:54 PM 56.3 °F 53.2 °F 89% 29.83 in 5.0 mi East 5.8 mph - 0.01 in   Drizzle
9:13 PM 56.3 °F 53.6 °F 91% 29.84 in 5.0 mi ENE 6.9 mph - 0.01 in Rain Rain
9:34 PM 55.9 °F 53.6 °F 92% 29.83 in 5.0 mi ENE 8.1 mph - 0.02 in   Drizzle
9:54 PM 55.9 °F 53.2 °F 91% 29.84 in 4.0 mi East 11.5 mph - 0.02 in   Light Drizzle
10:13 PM 55.8 °F 53.1 °F 91% 29.84 in 4.0 mi East 10.4 mph 16.1 mph N/A Rain Light Rain
10:34 PM 55.8 °F 53.1 °F 91% 29.84 in 3.0 mi East 10.4 mph - N/A Rain Rain
10:53 PM 55.4 °F 52.7 °F 91% 29.83 in 3.0 mi East 10.4 mph 17.3 mph N/A Rain Light Rain
11:13 PM 55.4 °F 52.7 °F 91% 29.83 in 4.0 mi East 6.9 mph - N/A   Light Drizzle
11:34 PM 55.4 °F 52.9 °F 91% 29.82 in 5.0 mi East 8.1 mph - 0.01 in   Overcast
11:53 PM 55.4 °F 52.7 °F 91% 29.82 in 10.0 mi East 5.8 mph - 0.01 in   Overcast